Northeast Philadelphia, PA

5:41 PM EDT on April 26, 2018 (GMT -0400)
Northeast Philadelphia

Weather History for KPNE - March, 2014

Change the Weather History Date:

Saturday, March 8, 2014

  Actual Average Record
Temperature  
Mean Temperature 46 °F -  
Max Temperature 59 °F 45 °F 75 °F (2016)
Min Temperature 34 °F 28 °F 15 °F (2007)
Degree Days  
Heating Degree Days 18    
Moisture  
Dew Point 28 °F    
Average Humidity 53    
Maximum Humidity 82    
Minimum Humidity 29    
Precipitation  
Precipitation 0.00 in - - ()
Sea Level Pressure  
Sea Level Pressure 29.90 in    
Wind  
Wind Speed 8 mph (NW)    
Max Wind Speed 24 mph    
Max Gust Speed 31 mph    
Visibility 10 miles    
Events      
Averages and records for this station are not official NWS values.
T = Trace of Precipitation, MM = Missing Value Source: NWS Daily Summary

Daily Weather History Graph

Daily Weather History Graph

Search for Another Location

Airport or City:

Astronomy

Mar. 08, 2014 Rise Set
Actual Time 6:22 AM EST 5:59 PM EST
Civil Twilight 5:55 AM EST 6:26 PM EST
Nautical Twilight 5:24 AM EST 6:57 PM EST
Astronomical Twilight 4:52 AM EST 7:29 PM EST
Moon 11:01 AM EST (3/8) 12:55 AM EST (3/8)
Length of Visible Light 12h 30m
Length of Day
11h 36m
First Quarter, 51% of the Moon is Illuminated
Mar 8
First Quarter
Mar 16
Full
Mar 23
Last Quarter
Mar 30
New
Apr 7
First Quarter

Hourly Weather History & Observations

Time (EST) Temp. Windchill Dew Point Humidity Pressure Visibility Wind Dir Wind Speed Gust Speed Precip Events Conditions
12:54 AM 37.9 °F 31.5 °F 26.1 °F 62% 29.92 in 10.0 mi North 9.2 mph - N/A   Overcast
1:54 AM 37.9 °F 33.5 °F 26.1 °F 62% 29.91 in 10.0 mi North 5.8 mph - N/A   Overcast
2:11 AM 37.9 °F 32.1 °F 26.1 °F 62% 29.91 in 10.0 mi NNW 8.1 mph - N/A   Overcast
2:54 AM 37.9 °F 35.5 °F 27.0 °F 65% 29.90 in 10.0 mi NNW 3.5 mph - N/A   Overcast
3:39 AM 39.0 °F 34.0 °F 28.0 °F 65% 29.90 in 10.0 mi NNW 6.9 mph - N/A   Overcast
3:54 AM 39.0 °F 33.4 °F 28.0 °F 65% 29.90 in 10.0 mi NW 8.1 mph - N/A   Overcast
4:47 AM 37.9 °F 30.9 °F 30.0 °F 73% 29.90 in 10.0 mi NW 10.4 mph - N/A   Overcast
4:54 AM 37.0 °F 31.0 °F 30.0 °F 76% 29.91 in 10.0 mi NNW 8.1 mph - N/A   Overcast
5:12 AM 36.0 °F 29.6 °F 30.0 °F 79% 29.91 in 10.0 mi NNW 8.1 mph - N/A   Scattered Clouds
5:54 AM 34.0 °F - 28.9 °F 82% 29.91 in 10.0 mi Calm Calm - N/A   Clear
6:54 AM 34.0 °F 29.8 °F 28.9 °F 82% 29.93 in 10.0 mi WSW 4.6 mph - N/A   Clear
7:54 AM 39.0 °F 34.0 °F 28.9 °F 67% 29.93 in 10.0 mi West 6.9 mph - N/A   Clear
8:54 AM 44.1 °F 39.5 °F 26.1 °F 49% 29.94 in 10.0 mi West 8.1 mph - N/A   Clear
9:54 AM 48.9 °F - 26.1 °F 41% 29.93 in 10.0 mi WNW 8.1 mph - N/A   Clear
10:54 AM 52.0 °F - 27.0 °F 38% 29.91 in 10.0 mi NW 10.4 mph - N/A   Clear
11:54 AM 55.9 °F - 27.0 °F 33% 29.91 in 10.0 mi West 12.7 mph 20.7 mph N/A   Clear
12:54 PM 57.9 °F - 26.1 °F 30% 29.87 in 10.0 mi West 11.5 mph 23.0 mph N/A   Clear
1:54 PM 59.0 °F - 27.0 °F 29% 29.85 in 10.0 mi NW 16.1 mph 25.3 mph N/A   Clear
2:54 PM 55.9 °F - 28.0 °F 34% 29.85 in 10.0 mi West 24.2 mph 31.1 mph N/A   Scattered Clouds
3:54 PM 57.0 °F - 28.9 °F 34% 29.86 in 10.0 mi WNW 13.8 mph 21.9 mph N/A   Mostly Cloudy
4:54 PM 55.9 °F - 28.9 °F 36% 29.87 in 10.0 mi WNW 12.7 mph 21.9 mph N/A   Clear
5:54 PM 53.1 °F - 28.9 °F 40% 29.88 in 10.0 mi WNW 8.1 mph - N/A   Clear
6:54 PM 50.0 °F - 28.9 °F 44% 29.90 in 10.0 mi West 4.6 mph - N/A   Scattered Clouds
7:54 PM 51.1 °F - 30.0 °F 44% 29.91 in 9.0 mi NW 3.5 mph - N/A   Overcast
8:54 PM 50.0 °F - 30.0 °F 46% 29.93 in 10.0 mi NNW 5.8 mph - N/A   Overcast
9:54 PM 48.9 °F - 30.9 °F 50% 29.94 in 9.0 mi NNW 8.1 mph - N/A   Mostly Cloudy
10:54 PM 48.0 °F - 32.0 °F 54% 29.93 in 9.0 mi NNW 6.9 mph - N/A   Overcast
11:54 PM 48.0 °F - 32.0 °F 54% 29.92 in 8.0 mi NW 8.1 mph - N/A   Overcast